Вернуться в каталог

COSMOS 663 DEB

АктивенPO
NORAD 53881·DEBRIS·🇷🇺 Russia

Запущен Jun 27, 1974 с Plesetsk Cosmodrome

Loading…

Ближайшие Пролёты (ближайшие 24 часа)

TLE

СвежийSource: Space-Track

Эпоха: Sep 12, 2026, 08:07 UTC

1 53881U 74048D   26255.33872095  .00000298  00000-0  28473-3 0  9991
2 53881  82.9469 108.6112 0025752   2.4669 357.6611 13.77373016203756

Отслеживайте COSMOS 663 DEB в реальном времени с AllMySat

Download on the App Store